Weather History for Mackinac Island, MI

Change the Weather History Date:

Tuesday, August 20, 2013

  Actual Average Record
Temperature  
Mean Temperature 72 °F -  
Max Temperature 77 °F 70 °F 82 °F (2003)
Min Temperature 68 °F 57 °F 45 °F (1992)
Cooling Degree Days 8    
Growing Degree Days 22 (Base 50)    
Moisture  
Dew Point 63 °F    
Average Humidity 73    
Maximum Humidity 87    
Minimum Humidity 60    
Precipitation  
Precipitation 0.00 in - - ()
Sea Level Pressure  
Sea Level Pressure 30.01 in    
Wind  
Wind Speed 10 mph (SW)    
Max Wind Speed 15 mph    
Max Gust Speed 25 mph    
Visibility 10 miles    
Events      
Averages and records for this station are not official NWS values.
T = Trace of Precipitation, MM = Missing Value Source: NWS Daily Summary

Daily Weather History Graph

Daily Weather History Graph

Search for Another Location

Airport:

Trip Planner

Search our weather history database for the weather conditions in past years. The results will help you decide how hot, cold, wet, or windy it might be!

Date:

Astronomy

Aug. 20, 2013 Rise Set
Actual Time 6:44 AM EDT 8:37 PM EDT
Civil Twilight 6:12 AM EDT 9:09 PM EDT
Nautical Twilight 5:33 AM EDT 9:48 PM EDT
Astronomical Twilight 4:50 AM EDT 10:31 PM EDT
Moon 8:05 PM EDT (8/20) 6:15 AM EDT (8/20)
Length of Visible Light 14h 56m
Length of Day
13h 53m
Full, 100% of the Moon is Illuminated
Aug 20
Full
Aug 20
Full
Aug 28
Last Quarter
Sep 5
New
Sep 12
First Quarter

Hourly Weather History & Observations

Time (EDT) Temp. Dew Point Humidity Pressure Visibility Wind Dir Wind Speed Gust Speed Precip Events Conditions
12:15 AM 69.8 °F 60.1 °F 71% 29.97 in 10.0 mi SW 11.5 mph 18.4 mph N/A   Clear
12:36 AM 69.4 °F 60.3 °F 73% 29.97 in 10.0 mi SW 10.4 mph 17.3 mph N/A   Clear
12:55 AM 69.1 °F 60.3 °F 73% 29.97 in 10.0 mi SW 9.2 mph - N/A   Clear
1:16 AM 69.4 °F 60.1 °F 72% 29.97 in 10.0 mi SW 11.5 mph 16.1 mph N/A   Clear
1:36 AM 69.4 °F 59.9 °F 72% 29.97 in 10.0 mi SW 10.4 mph 17.3 mph N/A   Clear
1:55 AM 69.3 °F 60.1 °F 72% 29.97 in 10.0 mi SW 11.5 mph 16.1 mph N/A   Clear
2:16 AM 69.3 °F 60.1 °F 72% 29.97 in 10.0 mi SW 10.4 mph - N/A   Clear
2:36 AM 69.3 °F 59.9 °F 72% 29.97 in 10.0 mi SW 10.4 mph - N/A   Clear
2:55 AM 69.3 °F 60.1 °F 72% 29.97 in 10.0 mi SW 9.2 mph - N/A   Clear
3:16 AM 69.1 °F 60.3 °F 73% 29.97 in 10.0 mi SW 9.2 mph - N/A   Clear
3:36 AM 68.5 °F 60.6 °F 76% 29.97 in 10.0 mi SW 9.2 mph - N/A   Clear
3:55 AM 68.7 °F 60.8 °F 76% 29.97 in 10.0 mi SW 6.9 mph - N/A   Clear
4:16 AM 68.9 °F 61.7 °F 78% 29.97 in 10.0 mi SW 9.2 mph - N/A   Clear
4:36 AM 68.9 °F 61.7 °F 78% 29.97 in 10.0 mi SW 10.4 mph - N/A   Clear
4:55 AM 69.1 °F 61.9 °F 78% 29.97 in 10.0 mi SW 9.2 mph 16.1 mph N/A   Clear
5:15 AM 68.9 °F 62.2 °F 79% 29.97 in 10.0 mi SW 9.2 mph 16.1 mph N/A   Clear
5:35 AM 68.4 °F 62.2 °F 81% 29.97 in 10.0 mi SW 9.2 mph - N/A   Clear
5:56 AM 68.4 °F 62.6 °F 82% 29.98 in 10.0 mi WSW 8.1 mph - N/A   Clear
6:16 AM 68.4 °F 63.0 °F 83% 29.99 in 10.0 mi SW 8.1 mph - N/A   Clear
6:36 AM 68.5 °F 63.1 °F 83% 30.00 in 10.0 mi WSW 8.1 mph - N/A   Mostly Cloudy
6:55 AM 68.4 °F 63.5 °F 84% 30.00 in 10.0 mi WSW 9.2 mph - N/A   Overcast
7:16 AM 68.9 °F 63.7 °F 83% 30.01 in 10.0 mi SW 10.4 mph - N/A   Mostly Cloudy
7:35 AM 68.0 °F 63.7 °F 86% 30.01 in 10.0 mi WSW 10.4 mph - N/A   Scattered Clouds
7:55 AM 68.0 °F 63.9 °F 87% 30.01 in 10.0 mi WSW 8.1 mph - N/A   Clear
8:16 AM 68.9 °F 64.0 °F 84% 30.02 in 10.0 mi SW 8.1 mph - N/A   Clear
8:35 AM 69.8 °F 64.4 °F 83% 30.02 in 10.0 mi SW 10.4 mph 16.1 mph N/A   Scattered Clouds
8:55 AM 70.5 °F 64.6 °F 81% 30.02 in 10.0 mi SW 10.4 mph 16.1 mph N/A   Scattered Clouds
9:15 AM 71.1 °F 64.6 °F 80% 30.02 in 10.0 mi SW 10.4 mph - N/A   Scattered Clouds
9:35 AM 71.2 °F 64.6 °F 79% 30.03 in 10.0 mi SW 9.2 mph - N/A   Scattered Clouds
9:56 AM 71.6 °F 64.6 °F 78% 30.03 in 10.0 mi WSW 8.1 mph - N/A   Clear
10:15 AM 72.0 °F 64.6 °F 77% 30.03 in 10.0 mi SW 9.2 mph 18.4 mph N/A   Clear
10:35 AM 72.7 °F 64.9 °F 77% 30.04 in 10.0 mi WSW 10.4 mph - N/A   Clear
10:56 AM 73.0 °F 64.9 °F 76% 30.04 in 10.0 mi WSW 9.2 mph 16.1 mph N/A   Clear
11:15 AM 72.7 °F 64.4 °F 75% 30.04 in 10.0 mi WSW 11.5 mph 19.6 mph N/A   Clear
11:36 AM 73.4 °F 64.2 °F 73% 30.04 in 10.0 mi WSW 12.7 mph 18.4 mph N/A   Clear
11:56 AM 73.4 °F 64.2 °F 73% 30.04 in 10.0 mi WSW 11.5 mph 17.3 mph N/A   Clear
12:15 PM 73.8 °F 64.0 °F 72% 30.04 in 10.0 mi WSW 13.8 mph 23.0 mph N/A   Clear
12:36 PM 73.9 °F 64.0 °F 71% 30.04 in 10.0 mi WSW 9.2 mph 23.0 mph N/A   Clear
12:56 PM 74.3 °F 63.7 °F 69% 30.04 in 10.0 mi WSW 13.8 mph 23.0 mph N/A   Clear
1:15 PM 75.0 °F 63.1 °F 66% 30.04 in 10.0 mi WSW 13.8 mph 25.3 mph N/A   Clear
1:36 PM 74.8 °F 64.0 °F 69% 30.04 in 10.0 mi WSW 13.8 mph 23.0 mph N/A   Clear
1:56 PM 75.2 °F 64.0 °F 68% 30.03 in 10.0 mi WSW 15.0 mph 21.9 mph N/A   Clear
2:15 PM 75.6 °F 63.7 °F 66% 30.03 in 10.0 mi WSW 12.7 mph 19.6 mph N/A   Clear
2:36 PM 75.4 °F 62.6 °F 64% 30.03 in 10.0 mi WSW 10.4 mph 21.9 mph N/A   Clear
2:56 PM 76.1 °F 62.8 °F 63% 30.03 in 10.0 mi WSW 15.0 mph 24.2 mph N/A   Clear
3:15 PM 76.5 °F 62.8 °F 62% 30.03 in 10.0 mi WSW 13.8 mph 19.6 mph N/A   Clear
3:36 PM 77.0 °F 63.0 °F 62% 30.02 in 10.0 mi WSW 15.0 mph 21.9 mph N/A   Clear
3:56 PM 77.5 °F 62.8 °F 60% 30.02 in 10.0 mi WSW 10.4 mph 19.6 mph N/A   Clear
4:15 PM 77.5 °F 63.0 °F 61% 30.02 in 10.0 mi WSW 12.7 mph 19.6 mph N/A   Clear
4:36 PM 77.9 °F 62.8 °F 60% 30.02 in 10.0 mi WSW 10.4 mph 18.4 mph N/A   Clear
4:56 PM 77.0 °F 63.1 °F 62% 30.01 in 10.0 mi WSW 13.8 mph 20.7 mph N/A   Clear
5:15 PM 77.2 °F 63.0 °F 61% 30.01 in 10.0 mi WSW 12.7 mph 21.9 mph N/A   Clear
5:36 PM 76.8 °F 63.3 °F 63% 30.01 in 10.0 mi WSW 11.5 mph 19.6 mph N/A   Clear
5:56 PM 76.5 °F 63.0 °F 63% 30.00 in 10.0 mi WSW 12.7 mph 19.6 mph N/A   Clear
6:15 PM 76.1 °F 62.6 °F 63% 30.00 in 10.0 mi WSW 11.5 mph 19.6 mph N/A   Clear
6:36 PM 74.8 °F 62.6 °F 66% 30.00 in 10.0 mi WSW 12.7 mph 20.7 mph N/A   Clear
6:55 PM 73.8 °F 63.5 °F 70% 30.00 in 10.0 mi WSW 11.5 mph 20.7 mph N/A   Clear
7:15 PM 73.8 °F 63.5 °F 70% 30.00 in 10.0 mi WSW 11.5 mph 18.4 mph N/A   Clear
7:36 PM 73.4 °F 63.5 °F 71% 30.00 in 10.0 mi WSW 11.5 mph 18.4 mph N/A   Clear
7:55 PM 72.7 °F 63.1 °F 72% 30.00 in 10.0 mi WSW 11.5 mph 18.4 mph N/A   Clear
8:15 PM 71.6 °F 63.5 °F 76% 30.00 in 10.0 mi WSW 9.2 mph 16.1 mph N/A   Clear
8:36 PM 71.2 °F 63.5 °F 76% 30.00 in 10.0 mi WSW 5.8 mph - N/A   Clear
8:55 PM 70.2 °F 63.7 °F 80% 30.00 in 10.0 mi WSW 5.8 mph - N/A   Clear
9:15 PM 70.5 °F 63.9 °F 79% 30.00 in 10.0 mi WSW 4.6 mph - N/A   Clear
9:36 PM 70.3 °F 63.7 °F 79% 30.01 in 10.0 mi SW 4.6 mph - N/A   Clear
9:55 PM 69.8 °F 63.7 °F 81% 30.01 in 10.0 mi SW 6.9 mph - N/A   Clear
10:15 PM 71.6 °F 62.8 °F 74% 30.01 in 10.0 mi SSW 6.9 mph - N/A   Clear
10:36 PM 71.8 °F 62.6 °F 73% 30.01 in 10.0 mi SSW 6.9 mph - N/A   Clear
10:55 PM 71.6 °F 62.6 °F 73% 30.00 in 10.0 mi SSW 5.8 mph - N/A   Clear
11:15 PM 71.2 °F 62.6 °F 74% 30.00 in 10.0 mi SSW 6.9 mph - N/A   Clear
11:36 PM 70.9 °F 62.6 °F 75% 30.00 in 10.0 mi SSW 5.8 mph - N/A   Clear
11:55 PM 70.9 °F 62.4 °F 75% 30.01 in 10.0 mi SW 6.9 mph - N/A   Clear